Dewpoint
34 34 33 35 39 40 38 40 38 41 46 46 44 47 49 51 51 48 48 49 49 50 51 52 55 57 62 63 64 64 65 67 69 68 68 67 66 67 67 69 70 70 70 71
27 29 31 37 41 42 41 39 37 41 45 44 48 46 49 51 50 51 49 49 50 51 52 51 55 57 62 63 64 65 65 67 69 69 68 67 67 68 68 69 70 71 70 71
28 29 36 38 40 39 41 39 38 38 43 47 44 39 48 50 51 52 52 52 52 51 53 54 54 59 63 63 64 65 66 67 68 69 68 69 69 69 68 67 68 68 68 68
21 22 26 34 32 39 35 40 41 41 39 36 43 35 37 47 49 50 51 51 52 53 55 56 55 58 61 63 65 65 65 66 68 69 67 66 67 66 66 66 67 66 67 70
22 27 29 28 27 39 34 39 39 40 39 37 37 37 34 45 43 45 47 50 50 52 54 55 58 58 60 61 64 65 65 67 68 68 68 67 67 67 67 68 66 65 67 72
19 20 22 21 33 39 39 36 34 37 35 34 33 36 30 35 38 41 43 46 48 51 54 56 60 60 60 61 64 65 65 66 68 68 68 68 67 66 66 67 67 68 70 70
16 17 20 31 34 38 35 33 30 27 28 24 36 34 32 34 38 40 43 45 47 49 53 56 58 59 60 61 62 64 66 65 67 69 68 68 68 67 67 67 67 69 70 69
16 20 30 37 36 36 34 33 31 21 23 24 36 29 30 36 40 43 44 46 47 48 54 56 57 59 60 61 62 63 65 65 67 67 69 69 69 68 69 68 68 69 69 69
17 19 24 36 35 37 34 34 32 32 35 29 30 33 34 38 40 43 43 46 49 49 54 55 56 58 59 61 63 64 66 64 65 66 67 69 69 68 68 69 69 69 69 68
18 18 19 19 29 27 33 32 29 30 20 18 26 30 26 29 33 39 41 43 51 50 55 56 56 58 59 62 64 65 66 66 66 67 68 69 69 69 69 70 69 69 69 66
19 17 15 16 25 26 28 27 25 29 28 18 17 17 33 30 32 35 38 41 48 54 55 57 58 59 61 64 66 66 67 67 67 68 68 69 69 70 70 69 69 68 65 63
17 16 13 13 18 23 22 26 25 20 18 28 24 20 30 35 36 36 37 39 47 55 57 58 59 61 62 64 66 67 67 67 68 68 69 69 70 70 70 68 67 65 63 61
17 14 12 11 15 15 13 16 19 20 28 26 22 13 29 30 34 36 38 40 45 54 57 59 60 61 63 65 66 67 67 67 68 69 69 70 70 69 68 67 64 63 61 61
18 15 12 11 13 15 15 16 18 13 11 16 19 15 22 30 34 34 37 43 46 55 58 59 59 61 63 65 66 67 67 68 68 69 69 69 70 69 66 65 62 61 61 61
16 13 15 15 15 17 16 17 13 12 12 10 10 18 42 47 40 40 46 45 49 53 57 59 60 61 62 64 66 67 67 68 68 68 69 69 70 69 65 63 62 61 61 61
15 14 15 14 15 21 21 34 30 27 14 17 27 46 50 52 51 49 50 51 53 54 56 58 60 60 61 62 65 67 67 68 68 69 69 69 68 66 64 63 61 60 60 61
13 15 14 12 16 22 24 36 43 46 45 43 42 49 53 57 60 59 51 51 53 55 54 53 57 59 61 61 65 66 67 68 67 66 65 64 64 64 63 62 61 61 60 60
13 14 15 14 22 14 26 43 47 46 47 49 50 53 57 61 63 65 65 63 63 63 63 63 64 61 60 62 65 64 64 64 63 62 62 63 63 62 63 62 62 62 61 60
18 19 21 15 21 34 44 45 43 42 45 48 47 48 54 55 52 60 66 65 63 63 63 64 63 65 62 64 63 62 62 61 62 62 63 64 63 60 60 62 62 62 61 60
29 25 18 25 29 33 41 42 44 44 43 48 48 47 49 49 41 48 66 65 63 63 63 63 63 62 62 62 62 61 61 62 62 62 63 63 62 62 63 62 62 62 62 61
23 26 18 25 23 28 35 45 44 29 31 48 48 49 48 48 49 59 66 64 64 63 63 63 62 61 62 62 62 61 60 58 59 61 61 62 62 62 62 63 62 62 62 62
23 21 24 31 29 26 44 45 40 39 49 48 51 53 52 56 64 65 63 61 61 61 62 62 62 62 62 63 62 59 58 59 63 64 63 63 63 63 63 63 62 62 62 61
26 28 27 28 28 40 46 43 47 48 47 51 55 57 60 64 64 62 61 61 61 60 60 61 60 58 58 58 58 57 60 62 64 62 59 60 60 60 62 62 62 61 61 61
41 41 40 41 45 47 48 48 48 49 54 59 60 60 64 63 64 62 62 61 60 61 60 60 57 57 57 58 58 60 61 64 64 62 63 63 61 60 61 62 62 61 61 60
40 45 45 48 49 48 49 57 60 62 62 62 64 64 64 63 62 62 62 61 60 60 59 59 58 57 58 60 60 60 60 61 62 63 62 62 63 63 62 62 62 61 61 60
46 47 43 43 48 46 52 60 62 61 61 62 62 64 64 63 63 63 61 61 60 60 60 60 61 61 62 63 62 63 63 62 62 61 61 62 63 63 62 62 60 53 58 59
Wind_Speed
2 2 4 3 5 3 6 4 5 3 4 1 5 7 18 16 14 18 19 18 18 21 14 17 20 19 17 15 17 18 16 14 12 8 6 4 6 4 5 6 6 7 6 8
1 9 4 6 8 8 1 4 6 9 1 4 2 4 17 18 18 21 23 23 23 17 12 13 18 20 22 22 20 19 19 16 14 12 6 3 4 3 2 5 6 5 4 5
8 4 5 5 7 4 4 6 6 5 3 4 10 6 6 10 10 12 16 17 20 21 19 14 18 20 19 21 23 22 18 20 15 13 8 4 3 3 3 3 3 4 2 4
2 3 1 3 9 11 7 10 6 1 2 4 6 5 4 3 13 15 16 20 21 19 15 18 21 21 22 22 18 18 17 20 17 13 13 11 7 9 6 7 5 5 2 3
7 4 5 4 7 7 5 5 4 3 4 4 5 2 6 2 9 15 16 18 18 19 19 23 22 24 22 19 23 21 17 13 16 15 16 14 10 5 3 6 7 4 1 1
5 2 4 6 2 4 11 5 8 8 4 4 2 1 5 1 3 7 11 20 22 21 23 22 20 18 19 17 19 17 19 21 17 16 17 15 15 10 6 4 7 6 5 4
4 14 4 5 4 4 5 6 3 5 2 2 3 1 9 6 10 7 10 11 18 21 22 21 23 22 20 22 21 20 20 22 18 16 17 16 14 13 10 9 9 8 8 6
9 4 8 7 5 6 5 5 6 2 3 4 3 2 2 5 3 8 10 13 13 14 20 24 25 24 22 22 22 22 22 21 17 16 16 15 15 13 11 11 10 10 11 10
9 6 4 7 5 10 7 9 5 6 1 3 6 6 10 8 3 7 7 10 13 14 19 18 18 22 22 20 23 23 23 23 21 19 18 16 15 15 14 13 10 11 10 10
6 3 3 2 4 5 10 11 4 3 3 1 5 7 8 8 4 5 8 9 4 8 14 17 20 21 20 21 21 20 21 25 26 23 20 18 17 17 15 13 13 12 10 11
6 3 3 3 5 12 6 5 7 7 3 4 1 7 8 12 12 12 11 10 9 11 15 19 18 18 18 16 19 22 21 22 22 21 18 17 17 16 13 15 13 13 14 15
10 4 7 8 4 3 3 7 8 5 4 2 2 7 6 11 13 12 15 11 7 8 15 17 19 19 19 20 18 21 19 19 18 17 17 17 16 14 14 15 16 16 17 14
13 5 4 4 3 2 3 4 6 10 6 6 5 5 3 8 11 11 11 12 7 8 14 16 17 20 20 19 18 18 18 19 19 18 16 14 14 12 13 13 12 14 14 13
15 6 7 9 5 3 1 1 7 5 5 7 8 7 11 17 17 15 10 7 7 8 12 17 17 18 19 21 19 16 16 17 17 17 19 22 22 20 18 15 13 13 13 14
14 13 7 6 6 5 3 1 10 10 6 5 2 4 14 18 15 13 11 3 5 8 11 12 7 7 8 4 6 12 17 17 16 16 16 18 12 12 14 19 19 15 13 15
4 10 5 7 2 3 3 7 10 6 5 1 10 7 8 9 6 9 10 7 5 3 4 2 1 4 11 13 15 16 15 14 14 12 9 7 6 6 4 7 14 15 16 13
9 14 8 9 1 4 3 2 8 9 3 6 5 5 3 17 19 20 11 8 9 7 4 5 8 15 17 19 19 20 16 16 16 17 17 19 16 12 7 2 4 7 7 6
9 10 4 5 5 7 3 1 5 23 11 15 17 11 10 11 10 15 15 13 14 12 12 13 12 9 12 18 19 19 19 22 25 23 19 16 13 8 5 12 11 10 8 9
3 8 6 6 3 1 4 6 6 7 5 4 13 8 9 6 7 10 11 10 8 10 12 13 15 10 3 8 12 19 19 19 18 16 16 13 13 28 25 19 19 14 14 12
11 11 7 5 6 9 11 9 6 8 7 4 10 12 12 3 6 2 5 7 10 10 10 11 11 11 14 13 13 15 15 12 6 3 10 14 12 19 23 21 22 19 16 14
7 4 11 8 4 4 8 5 8 6 7 11 10 11 8 6 3 2 1 3 4 6 12 11 13 14 13 13 15 13 8 8 5 3 6 10 10 14 20 23 22 23 21 18
11 12 6 6 4 4 10 8 9 8 10 14 11 9 10 7 8 5 3 3 8 13 11 11 14 13 11 9 9 9 9 7 7 4 4 5 6 6 7 25 27 27 21 15
9 7 12 9 8 1 3 4 7 15 20 11 12 10 14 12 8 7 4 6 10 11 9 8 11 14 13 9 11 13 4 6 5 5 9 13 12 13 16 8 16 25 25 19
2 4 8 7 2 7 15 12 11 14 15 12 12 14 13 13 11 7 5 6 8 10 11 11 15 16 15 13 11 7 5 5 3 3 3 2 3 9 13 12 11 12 9 9
5 9 11 7 11 17 9 15 19 18 18 17 11 10 15 16 12 8 8 8 11 13 13 12 12 10 7 4 4 1 1 5 4 2 2 2 2 4 6 7 6 6 6 11
7 10 10 13 24 10 19 18 20 23 18 17 18 12 8 7 12 12 9 10 12 12 12 14 12 9 7 8 8 7 4 4 6 9 5 5 8 6 8 9 11 17 7 6
Wind_Direction
64 176 219 221 166 206 210 184 267 238 199 169 121 151 184 182 198 213 221 227 235 229 224 210 201 192 188 184 186 200 206 211 173 172 199 223 226 206 227 230 244 241 238 257
90 249 236 108 150 128 329 323 303 305 338 351 9 260 176 187 208 211 214 226 232 236 224 207 194 181 186 191 190 200 208 209 197 188 187 186 180 214 202 211 265 269 249 286
181 213 126 134 158 171 201 247 265 257 4 51 340 329 164 215 226 227 224 220 229 231 220 202 191 183 180 188 195 201 203 213 204 193 174 149 128 119 187 216 235 271 272 273
195 285 258 276 281 171 265 247 264 323 27 324 13 299 332 192 202 224 230 221 225 228 216 203 194 189 185 197 197 198 200 209 205 194 202 207 212 213 204 200 194 165 222 334
196 170 161 236 254 169 250 92 89 76 104 353 5 34 287 358 233 243 240 233 229 227 218 210 198 195 191 185 194 199 199 208 211 205 210 213 236 226 172 179 174 177 184 109
217 232 234 230 272 183 160 84 47 59 57 311 280 126 300 209 217 249 240 233 230 220 213 208 195 182 189 178 182 187 195 215 210 207 211 216 226 232 223 187 188 172 173 158
316 272 258 190 164 94 135 115 328 330 352 274 238 183 261 236 236 223 198 211 217 212 205 197 189 187 184 185 184 185 195 209 207 205 207 218 225 222 221 204 193 177 164 167
206 259 192 191 180 180 162 165 174 297 302 313 213 271 221 206 279 246 224 215 218 228 203 199 192 189 188 186 188 185 197 210 204 208 215 217 216 207 203 198 193 187 182 173
176 256 256 208 152 152 188 221 166 100 24 313 326 292 290 298 242 200 207 205 240 227 202 193 193 195 191 187 191 191 192 210 214 223 222 216 206 197 196 195 193 189 177 166
196 242 223 97 107 68 183 146 152 82 211 291 321 300 271 302 253 218 214 233 245 203 188 190 194 195 196 195 192 187 191 197 204 210 213 207 198 195 193 183 188 181 166 162
151 167 289 319 199 191 164 171 82 114 119 175 242 285 226 270 259 227 228 230 207 198 182 190 193 192 194 189 183 187 190 192 195 194 198 202 201 194 186 188 182 179 169 172
191 173 223 237 183 198 153 177 148 199 221 112 147 274 243 257 265 246 242 241 223 187 187 186 188 184 185 190 184 188 190 195 199 192 196 202 204 200 195 191 183 174 175 176
170 207 246 325 55 103 193 124 125 112 117 186 167 263 320 307 281 271 266 268 228 193 184 183 188 190 191 194 192 191 191 195 192 184 193 197 207 203 202 200 186 179 172 172
150 159 184 210 190 164 136 142 159 139 164 172 228 274 350 347 329 305 303 275 236 220 198 197 201 197 193 199 194 188 193 197 195 186 193 200 199 196 194 192 190 183 181 177
174 226 194 231 173 174 162 168 168 197 185 196 194 208 331 321 321 320 324 253 217 223 231 225 233 215 216 190 183 178 195 196 195 186 194 208 203 199 189 184 186 184 188 194
155 201 153 171 195 233 138 94 127 121 163 303 99 62 350 359 16 16 26 63 71 35 320 293 179 199 205 196 189 193 192 191 167 164 162 120 120 147 204 228 189 180 192 201
167 152 159 188 126 120 129 315 123 101 98 137 118 145 353 56 48 39 30 38 56 47 11 290 228 212 199 197 186 187 172 139 130 114 102 94 89 74 30 18 218 152 224 202
158 125 94 167 132 210 284 273 149 105 85 105 118 120 109 100 84 53 41 47 42 25 16 1 341 304 217 193 184 154 141 133 130 130 119 96 81 44 221 179 188 171 202 207
133 131 109 149 127 25 88 170 170 131 96 119 127 150 176 140 64 48 27 27 17 8 3 355 346 323 229 159 123 124 124 130 133 148 152 150 204 215 230 205 181 173 184 194
85 93 122 133 156 187 201 215 177 133 129 192 135 113 140 164 59 320 352 359 6 9 12 7 15 47 75 77 92 108 108 93 65 322 268 277 265 219 198 193 182 175 183 197
128 90 172 158 154 247 240 167 136 169 189 162 130 121 121 100 158 151 77 21 359 22 30 46 59 71 75 83 94 82 70 63 111 197 267 292 289 252 227 212 191 176 185 183
168 158 171 120 130 174 178 121 179 160 133 140 129 126 114 122 123 123 106 38 30 34 37 53 73 73 61 74 90 74 62 359 11 73 50 23 12 22 298 217 193 175 171 160
182 182 167 181 186 216 171 193 135 139 137 150 129 141 148 147 161 163 123 43 29 32 35 51 71 69 56 68 105 96 52 9 24 67 57 51 34 39 25 68 170 161 150 159
123 134 115 130 67 123 129 104 117 137 130 133 137 147 152 152 165 152 106 63 56 56 64 76 83 77 79 87 75 74 29 16 48 56 35 37 13 51 37 48 78 112 131 137
171 146 137 95 115 99 99 127 128 118 120 122 125 143 148 153 166 129 100 78 81 78 75 77 84 86 78 39 41 28 309 19 41 43 337 54 108 88 98 98 93 134 130 154
185 158 146 176 172 141 158 152 140 136 141 142 139 142 153 166 131 113 102 99 87 78 78 77 72 69 45 38 38 31 50 86 92 78 59 80 90 98 119 122 99 50 90 160